User: anonymous   Login
Location: Unspecified
(0.0000°N, 0.0000°E)
Time: 10:55:57
(UTC+00:00)
Language:

Cosmos 1782 - Orbit

View from above orbital plane
View from above orbital plane
View from above satellite
View from above satellite

Ground track
Ground track

The orbit data is extracted from the following two-line orbital elements,

1 16986U 86074A   18197.19178064  .00000572  00000-0  36295-4 0  9990
2 16986  82.5063  97.8482 0013164  73.8837 286.3839 15.06882772730189
Epoch (UTC): 16 July 2018 04:36:09
Eccentricity: 0.0013164
inclination: 82.5063°
perigee height: 536 km
apogee height: 555 km
right ascension of ascending node: 97.8482°
argument of perigee: 73.8837°
revolutions per day: 15.06882772
mean anomaly at epoch: 286.3839°
orbit number at epoch: 73018

The dashed part of the orbit path shows where the satellite is in the earth's shadow,  

DLR